Simultaneous Nadir Overpasses (SNOs) Predictions

Prediction of SNOs between METOP-B and NOAA-19 Satellite Orbit:

Table of predicted SNOs for the next 14.0 days since TLE Epoch: 10/5/2019
Index Date (METOP-B) Time (METOP-B) Lat,Lon (METOP-B) SZA (METOP-B ) Date (NOAA-19) Time (NOAA-19) Lat,Lon (NOAA-19) SZA (NOAA-19 ) Distance(km) Time Diff (sec)
1 10/12/2019 03:27:04 -79.59, -33.50 92.48 10/12/2019 03:25:50 -79.62, -34.20 92.53 14.18 74
2 10/12/2019 04:17:45 79.56, 133.52 87.48 10/12/2019 04:16:46 79.56, 133.60 87.48 1.96 59
3 10/12/2019 05:08:27 -79.55, -59.24 92.53 10/12/2019 05:07:49 -79.57, -59.20 92.51 2.53 38
4 10/12/2019 05:59:07 79.54, 108.06 87.49 10/12/2019 05:58:47 79.57, 108.03 87.51 3.41 20
5 10/12/2019 06:49:48 -79.57, -84.42 92.47 10/12/2019 06:49:49 -79.55, -84.48 92.49 2.31 1
6 10/12/2019 07:40:28 79.56, 82.87 87.54 10/12/2019 07:40:47 79.55, 82.74 87.53 2.85 19
7 10/12/2019 08:31:10 -79.55,-109.88 92.47 10/12/2019 08:31:50 -79.55,-110.05 92.46 3.41 40
8 10/12/2019 09:21:50 79.55, 57.41 87.54 10/12/2019 09:22:47 79.53, 57.45 87.55 1.90 57




NCC Satellite Simultaneous Nadir Overpasses (SNOs) Prediction Service
